{"data":{"norad_id":43877,"epoch":"2026-09-20T04:58:01.375104Z","epoch_age_seconds":83611,"freshness":"FRESH","line1":"1 43877U 18111B   26263.20696036  .00008785  00000+0  22235-3 0  9996","line2":"2 43877  97.3648 181.0466 0001865  88.6019 271.5440 15.39992203430155","mean_motion":15.39992203,"eccentricity":0.0001865,"inclination_deg":97.3648,"raan_deg":181.0466,"arg_perigee_deg":88.6019,"mean_anomaly_deg":271.544,"bstar":0.00022235,"rev_number":43015,"period_min":93.506966931053,"perigee_km":444.85962588975,"apogee_km":447.40507835809,"semimajor_km":6824.2693521239,"source":"CELESTRAK","updated_at":"2026-09-20T09:00:14.414995Z"}}